Location: Keppel Henge
(44.7900°N, 80.9447°W)
Time: 18:39:20
(UTC-04:00)

OTV 5 (USA 277) - Visible Passes

Search period start: 21 April 2018 00:00
Search period end: 01 May 2018 00:00
Orbit: 307 x 321 km, 54.5° (Epoch: 20 April)

Date Brightness Start Highest point End Pass type
(mag) Time Alt. Az. Time Alt. Az. Time Alt. Az.
21 Apr ? 20:53:52 10° WSW 20:56:30 50° NNW 20:59:09 10° NE visible
21 Apr ? 22:29:45 10° NW 22:31:16 14° NNW 22:32:47 10° NNE visible
22 Apr ? 21:07:48 10° W 21:10:08 25° NNW 21:12:28 10° NE visible
22 Apr ? 22:44:05 10° NNW 22:45:07 11° N 22:46:08 10° NNE visible
23 Apr ? 21:22:02 10° WNW 21:23:51 16° NNW 21:25:42 10° NNE visible
23 Apr ? 22:58:02 10° NNW 22:58:59 11° N 22:59:22 11° NNE visible
24 Apr ? 21:36:24 10° NW 21:37:41 12° N 21:38:57 10° NNE visible
24 Apr ? 23:11:27 10° NNW 23:12:22 13° N 23:12:22 13° N visible
25 Apr ? 21:50:39 10° NNW 21:51:33 11° N 21:52:26 10° NNE visible
25 Apr ? 23:24:42 10° NNW 23:25:18 13° NNW 23:25:18 13° NNW visible
26 Apr ? 22:04:20 10° NNW 22:05:25 12° N 22:06:30 10° NNE visible
26 Apr ? 23:37:56 10° NW 23:38:12 12° NNW 23:38:12 12° NNW visible
27 Apr ? 22:17:37 10° NNW 22:19:15 14° NNE 22:20:17 12° NE visible
28 Apr ? 20:57:04 10° NNW 20:57:58 11° N 20:58:52 10° NNE visible
28 Apr ? 22:30:51 10° NNW 22:33:01 21° NNE 22:33:11 21° NNE visible
29 Apr ? 21:10:32 10° NNW 21:11:50 13° N 21:13:07 10° NE visible
29 Apr ? 22:44:07 10° NW 22:46:04 31° N 22:46:04 31° N visible
30 Apr ? 21:23:47 10° NNW 21:25:39 16° NNE 21:27:31 10° ENE visible
30 Apr ? 22:57:31 10° NW 22:58:59 28° NW 22:58:59 28° NW visible
